Date String (YYYY-MM-DD hh:mm:ss) UTC,Instrument flags,Ambient pressure (hPa),Sample flow (lpm),Bypass flow (lpm),Sample temperature (°C),Ambient temperature (°C),ASC tube jacket temperature (°C),LED temperature (°C),Box temperature (°C),Sample RH (%),Span deviation,Mass concentration (μg/m³),Mass concentration (μg/m³),Mass concentration (μg/m³)
DateTimeUTC,F1_M11,P_M11,Q1_M11,Q2_M11,T1_M11,T2_M11,T3_M11,T4_M11,T5_M11,U1_M11,ZSPAN_M11,X2_M11,X0_M11,X1_M11
2022-09-10 16:00:00,,0833.6,5.01,0.00,27.6,26.1,00.0,36.3,29.5,27.0,0000.0,0003.85,0005.57,0003.66
2022-09-10 16:01:00,,0833.6,4.99,0.00,27.6,26.1,00.0,36.3,29.5,27.2,0000.0,0003.82,0005.56,0003.63
2022-09-10 16:02:00,,0833.6,5.00,0.00,27.6,26.1,00.0,36.4,29.5,27.2,0000.0,0003.79,0005.55,0003.59
2022-09-10 16:03:00,,0833.6,5.01,0.00,27.6,26.1,00.0,36.3,29.5,27.2,0000.0,0003.71,0005.39,0003.51
2022-09-10 16:04:00,,0833.6,5.01,0.00,27.6,26.1,00.0,36.4,29.5,26.8,0000.0,0003.64,0005.28,0003.43
2022-09-10 16:05:00,,0833.6,4.99,0.00,27.6,26.1,00.0,36.4,29.5,26.6,0000.0,0003.59,0005.22,0003.37
2022-09-10 16:06:00,,0833.6,5.01,0.00,27.6,26.1,00.0,36.4,29.5,26.5,0000.0,0003.57,0005.15,0003.35
2022-09-10 16:07:00,,0833.6,5.01,0.00,27.6,26.1,00.0,36.4,29.5,26.5,0000.0,0003.55,0005.08,0003.33
2022-09-10 16:08:00,,0833.6,4.99,0.00,27.6,26.1,00.0,36.4,29.5,26.5,0000.0,0003.52,0005.01,0003.31
2022-09-10 16:09:00,,0833.6,5.02,0.00,27.6,26.1,00.0,36.4,29.5,26.5,0000.0,0003.49,0004.89,0003.29
2022-09-10 16:10:00,,0833.6,5.01,0.00,27.6,26.1,00.0,36.4,29.5,26.5,0000.0,0003.50,0004.94,0003.28
2022-09-10 16:11:00,,0833.6,5.00,0.00,27.7,26.1,00.0,36.4,29.5,26.5,0000.0,0003.48,0004.92,0003.26
2022-09-10 16:12:00,,0833.7,5.00,0.00,27.6,26.1,00.0,36.4,29.5,26.5,0000.0,0003.47,0004.97,0003.23
2022-09-10 16:13:00,,0833.6,5.00,0.00,27.6,26.1,00.0,36.4,29.5,26.4,0000.0,0003.46,0004.97,0003.21
2022-09-10 16:14:00,,0833.7,5.01,0.00,27.6,26.1,00.0,36.4,29.5,26.4,0000.0,0003.49,0005.08,0003.21
2022-09-10 16:15:00,,0833.6,4.99,0.00,27.7,26.1,00.0,36.4,29.5,26.5,0000.0,0003.50,0005.13,0003.22
2022-09-10 16:16:00,,0833.6,4.99,0.00,27.7,26.2,00.0,36.4,29.6,26.4,0000.0,0003.48,0005.15,0003.21
2022-09-10 16:17:00,,0833.6,5.00,0.00,27.7,26.2,00.0,36.4,29.6,26.5,0000.0,0003.46,0005.23,0003.17
2022-09-10 16:18:00,,0833.6,5.00,0.00,27.7,26.2,00.0,36.4,29.5,26.6,0000.0,0003.45,0005.28,0003.14
2022-09-10 16:19:00,,0833.6,5.00,0.00,27.7,26.2,00.0,36.4,29.6,26.5,0000.0,0003.45,0005.36,0003.12
2022-09-10 16:20:00,,0833.7,4.99,0.00,27.7,26.1,00.0,36.4,29.6,26.5,0000.0,0003.44,0005.36,0003.10
2022-09-10 16:21:00,,0833.6,5.01,0.00,27.7,26.1,00.0,36.4,29.6,26.5,0000.0,0003.41,0005.27,0003.06
2022-09-10 16:22:00,,0833.7,5.01,0.00,27.7,26.1,00.0,36.4,29.6,27.2,0000.0,0003.39,0005.20,0003.03
2022-09-10 16:23:00,,0833.6,5.00,0.00,27.7,26.1,00.0,36.4,29.5,27.3,0000.0,0003.35,0005.05,0003.01
2022-09-10 16:24:00,,0833.7,4.99,0.00,27.7,26.1,00.0,36.4,29.5,26.6,0000.0,0003.31,0004.87,0002.99
2022-09-10 16:25:00,,0833.7,5.00,0.00,27.7,26.1,00.0,36.4,29.5,26.3,0000.0,0003.28,0004.72,0002.98
2022-09-10 16:26:00,,0833.7,5.00,0.00,27.7,26.1,00.0,36.4,29.5,26.3,0000.0,0003.28,0004.64,0003.00
2022-09-10 16:27:00,,0833.7,5.01,0.00,27.7,26.1,00.0,36.4,29.6,26.3,0000.0,0003.27,0004.54,0002.99
2022-09-10 16:28:00,,0833.7,4.99,0.00,27.7,26.1,00.0,36.4,29.6,26.3,0000.0,0003.25,0004.39,0002.99
2022-09-10 16:29:00,,0833.7,5.01,0.00,27.7,26.2,00.0,36.4,29.6,26.5,0000.0,0003.22,0004.25,0002.98
2022-09-10 16:30:00,,0833.8,5.00,0.00,27.7,26.2,00.0,36.4,29.6,26.7,0000.0,0003.20,0004.18,0002.97
2022-09-10 16:31:00,,0833.8,4.99,0.00,27.7,26.2,00.0,36.4,29.6,26.5,0000.0,0003.20,0004.24,0002.94
2022-09-10 16:32:00,,0833.8,5.00,0.00,27.7,26.2,00.0,36.4,29.6,26.3,0000.0,0003.17,0004.14,0002.89
2022-09-10 16:33:00,,0833.9,5.00,0.00,27.7,26.2,00.0,36.4,29.6,26.3,0000.0,0003.14,0004.07,0002.85
2022-09-10 16:34:00,,0833.8,4.99,0.00,27.7,26.2,00.0,36.4,29.6,26.2,0000.0,0003.12,0004.05,0002.80
2022-09-10 16:35:00,,0833.8,5.01,0.00,27.7,26.2,00.0,36.4,29.6,26.0,0000.0,0003.11,0004.12,0002.74
2022-09-10 16:36:00,,0833.8,5.00,0.00,27.7,26.1,00.0,36.4,29.6,26.0,0000.0,0003.08,0004.14,0002.69
2022-09-10 16:37:00,,0833.8,5.00,0.00,27.7,26.1,00.0,36.4,29.6,26.2,0000.0,0003.03,0004.08,0002.65
2022-09-10 16:38:00,,0833.8,4.99,0.00,27.7,26.2,00.0,36.4,29.6,26.2,0000.0,0003.02,0004.11,0002.63
2022-09-10 16:39:00,,0833.8,5.01,0.00,27.7,26.2,00.0,36.4,29.6,26.1,0000.0,0003.01,0004.15,0002.60
2022-09-10 16:40:00,,0833.8,5.01,0.00,27.7,26.2,00.0,36.4,29.6,26.1,0000.0,0003.00,0004.14,0002.58
2022-09-10 16:41:00,,0833.8,4.99,0.00,27.7,26.2,00.0,36.4,29.6,26.0,0000.0,0002.96,0004.06,0002.55
2022-09-10 16:42:00,,0833.8,5.01,0.00,27.7,26.2,00.0,36.4,29.6,25.8,0000.0,0002.91,0003.92,0002.53
2022-09-10 16:43:00,,0833.8,5.00,0.00,27.7,26.2,00.0,36.4,29.6,25.8,0000.0,0002.94,0003.99,0002.56
2022-09-10 16:44:00,,0833.8,5.00,0.00,27.7,26.2,00.0,36.5,29.6,25.8,0000.0,0002.99,0004.04,0002.60
2022-09-10 16:45:00,,0833.8,5.00,0.00,27.7,26.2,00.0,36.5,29.6,25.8,0000.0,0003.03,0004.08,0002.65
2022-09-10 16:46:00,,0833.8,5.00,0.00,27.7,26.2,00.0,36.5,29.6,25.9,0000.0,0003.06,0004.05,0002.71
2022-09-10 16:47:00,,0833.8,5.01,0.00,27.7,26.2,00.0,36.5,29.6,26.2,0000.0,0003.10,0004.08,0002.76
2022-09-10 16:48:00,,0833.8,5.00,0.00,27.7,26.2,00.0,36.5,29.6,26.2,0000.0,0003.13,0004.13,0002.78
2022-09-10 16:49:00,,0833.9,4.98,0.00,27.7,26.2,00.0,36.5,29.6,26.1,0000.0,0003.14,0004.17,0002.79
2022-09-10 16:50:00,,0833.8,5.01,0.00,27.7,26.2,00.0,36.5,29.6,26.0,0000.0,0003.15,0004.14,0002.82
2022-09-10 16:51:00,,0833.9,5.00,0.00,27.7,26.2,00.0,36.5,29.6,25.9,0000.0,0003.15,0004.09,0002.85
2022-09-10 16:52:00,,0833.9,5.00,0.00,27.7,26.2,00.0,36.5,29.6,25.9,0000.0,0003.15,0004.06,0002.86
2022-09-10 16:53:00,,0833.9,5.01,0.00,27.7,26.2,00.0,36.5,29.6,26.0,0000.0,0003.17,0004.15,0002.90
2022-09-10 16:54:00,,0833.9,5.01,0.00,27.7,26.2,00.0,36.5,29.6,26.2,0000.0,0003.17,0004.11,0002.90
2022-09-10 16:55:00,,0833.9,4.99,0.00,27.7,26.2,00.0,36.5,29.6,26.2,0000.0,0003.16,0004.08,0002.90
2022-09-10 16:56:00,,0833.9,5.00,0.00,27.7,26.2,00.0,36.5,29.6,26.2,0000.0,0003.17,0004.09,0002.89
2022-09-10 16:57:00,,0833.9,5.00,0.00,27.7,26.2,00.0,36.5,29.6,26.1,0000.0,0003.16,0004.06,0002.88
2022-09-10 16:58:00,,0833.9,5.00,0.00,27.7,26.2,00.0,36.5,29.6,26.0,0000.0,0003.15,0004.03,0002.87
2022-09-10 16:59:00,,0833.9,4.99,0.00,27.8,26.2,00.0,36.5,29.6,26.1,0000.0,0003.16,0004.05,0002.89
